K9JM Weather Reports


Display with metric or nautical units.
time (UTC)temp
F
wind
direction
speed
MPH
gust
MPH
rain 1hr
in
rain 24hr
in
rain mn
in
humidity
%
barometer
mb
20260906054516 61 0.0 0.0 0.00 0.00 0.00 65 1015.6
20260906053016 62 0.0 0.0 0.00 0.00 0.00 64 1015.6
20260906051515 62 0.0 1.0 0.00 0.00 0.00 63 1015.7
20260906050016 63 0.0 1.0 0.00 0.00 0.00 60 1015.5
20260906044516 64 0.0 1.0 0.00 0.00 0.00 59 1015.5
20260906043015 64 0.0 0.0 0.00 0.00 0.00 58 1015.3
20260906041516 65 0.0 0.0 0.00 0.00 0.00 55 1015.3
20260906040055 66 0.0 0.0 0.00 0.00 0.00 53 1015.3
20260906034535 66 0.0 0.0 0.00 0.00 0.00 51 1015.2
20260906033035 66 0.0 0.0 0.00 0.00 0.00 51 1014.6
20260906031515 67 0.0 0.0 0.00 0.00 0.00 50 1014.7
20260906030036 67 0.0 0.0 0.00 0.00 0.00 49 1014.4
20260906024515 67 0.0 0.0 0.00 0.00 0.00 49 1014.4
20260906023015 68 0.0 0.0 0.00 0.00 0.00 48 1014.3
20260906021535 69 0.0 0.0 0.00 0.00 0.00 48 1014.4
20260906020016 69 0.0 0.0 0.00 0.00 0.00 48 1014.4
20260906014516 69 0.0 2.0 0.00 0.00 0.00 47 1014.5
20260906013016 70 0.0 1.0 0.00 0.00 0.00 46 1014.4
20260906011515 70 0.0 0.0 0.00 0.00 0.00 44 1014.6
20260906010015 71 113 1.0 4.0 0.00 0.00 0.00 45 1014.6
20260906004535 71 113 1.0 5.0 0.00 0.00 0.00 44 1014.9
20260906003015 71 0.0 3.0 0.00 0.00 0.00 44 1014.9
20260906001515 71 113 1.0 5.0 0.00 0.00 0.00 43 1015.0
20260906000015 72 135 1.0 6.0 0.00 0.00 0.00 43 1015.1
20260905234535 72 0.0 2.0 0.00 0.00 0.00 43 1015.0
20260905233015 73 113 1.0 5.0 0.00 0.00 0.00 43 1015.1
20260905231537 72 113 2.0 5.0 0.00 0.00 0.00 42 1015.2
20260905230017 73 113 1.0 5.0 0.00 0.00 0.00 41 1015.4
20260905224516 73 113 1.0 5.0 0.00 0.00 0.00 41 1015.5
20260905223057 72 113 1.0 5.0 0.00 0.00 0.00 40 1015.4
20260905221517 72 113 1.0 4.0 0.00 0.00 0.00 39 1015.5
20260905220017 71 113 1.0 4.0 0.00 0.00 0.00 41 1015.7
20260905214517 71 0.0 3.0 0.00 0.00 0.00 42 1015.8
20260905213017 71 113 1.0 5.0 0.00 0.00 0.00 44 1015.8
20260905211517 70 113 1.0 6.0 0.00 0.00 0.00 45 1015.7
20260905210017 69 0.0 3.0 0.00 0.00 0.00 46 1015.7
20260905204517 69 135 1.0 5.0 0.00 0.00 0.00 51 1015.8
20260905203017 69 0.0 2.0 0.00 0.00 0.00 53 1015.7
20260905201517 70 0.0 2.0 0.00 0.00 0.00 54 1015.9
20260905200017 70 0.0 2.0 0.00 0.00 0.00 53 1015.8
20260905194517 70 0.0 2.0 0.00 0.00 0.00 53 1015.8
20260905193017 71 0.0 2.0 0.00 0.00 0.00 51 1015.8
20260905191517 72 135 1.0 9.0 0.00 0.00 0.00 43 1015.7
20260905190017 72 135 1.0 6.0 0.00 0.00 0.00 43 1015.9
20260905184517 73 135 1.0 6.0 0.00 0.00 0.00 44 1016.0
20260905183037 72 180 1.0 6.0 0.00 0.00 0.00 45 1015.8
20260905181517 71 113 1.0 4.0 0.00 0.00 0.00 48 1015.9
20260905180017 72 113 1.0 6.0 0.00 0.00 0.00 47 1016.0
20260905174517 72 113 2.0 5.0 0.00 0.00 0.00 49 1016.0
20260905173017 72 113 1.0 5.0 0.00 0.00 0.00 49 1016.0
20260905171517 71 113 1.0 5.0 0.00 0.00 0.00 51 1015.9
20260905170017 71 113 1.0 3.0 0.00 0.01 0.00 52 1015.7
20260905164557 68 113 1.0 3.0 0.00 0.01 0.00 53 1015.6
20260905163017 67 90 1.0 3.0 0.00 0.01 0.00 57 1015.6
20260905161517 66 90 1.0 4.0 0.00 0.01 0.00 59 1015.6
20260905160017 65 0.0 4.0 0.00 0.01 0.00 63 1015.6
20260905154517 64 68 1.0 4.0 0.00 0.01 0.00 61 1015.4
20260905153017 64 0.0 2.0 0.00 0.01 0.00 62 1015.7
20260905151517 63 0.0 2.0 0.00 0.02 0.00 65 1015.6
20260905150017 61 0.0 2.0 0.00 0.02 0.00 66 1015.5
20260905144517 60 0.0 2.0 0.00 0.02 0.00 67 1015.2
20260905143017 58 0.0 0.0 0.00 0.03 0.00 69 1015.2
20260905141516 56 0.0 0.0 0.00 0.03 0.00 71 1015.1
20260905140016 55 0.0 0.0 0.00 0.04 0.00 71 1014.8
20260905134536 55 0.0 0.0 0.00 0.04 0.00 71 1014.8
20260905133017 55 0.0 0.0 0.00 0.04 0.00 71 1014.7
20260905131516 55 0.0 0.0 0.00 0.04 0.00 71 1014.7
20260905130016 56 0.0 0.0 0.00 0.04 0.00 70 1014.7
20260905124517 56 0.0 0.0 0.00 0.05 0.00 70 1014.8
20260905123016 55 0.0 0.0 0.00 0.05 0.00 71 1014.7
20260905121517 56 0.0 0.0 0.00 0.05 0.00 71 1014.7
20260905120016 56 0.0 0.0 0.00 0.05 0.00 71 1014.9
20260905114556 56 0.0 1.0 0.00 0.05 0.00 71 1014.8
20260905113016 56 0.0 2.0 0.00 0.05 0.00 71 1014.8
20260905111516 56 0.0 1.0 0.00 0.06 0.00 71 1015.1
20260905110016 56 0.0 1.0 0.00 0.07 0.00 71 1015.1
20260905104517 56 0.0 1.0 0.00 0.08 0.00 73 1015.1
20260905103017 56 0.0 1.0 0.00 0.08 0.00 74 1015.1
20260905101517 55 0.0 2.0 0.00 0.10 0.00 76 1015.2
20260905100016 55 0.0 0.0 0.00 0.11 0.00 77 1015.1
20260905094516 55 0.0 1.0 0.00 0.14 0.00 79 1015.2
20260905093016 55 0.0 1.0 0.00 0.17 0.00 80 1015.2
20260905091517 55 0.0 0.0 0.00 0.20 0.00 80 1015.2
20260905090016 55 0.0 2.0 0.00 0.25 0.00 82 1015.2
20260905084517 55 0.0 3.0 0.00 0.28 0.00 82 1015.3
20260905083016 55 0.0 1.0 0.00 0.33 0.00 82 1015.2
20260905081516 55 0.0 1.0 0.00 0.34 0.00 81 1015.1
20260905080037 55 0.0 1.0 0.00 0.36 0.00 81 1014.9
20260905074516 55 0.0 1.0 0.00 0.38 0.00 82 1014.8
20260905073016 55 0.0 0.0 0.00 0.38 0.00 82 1014.6
20260905071517 55 0.0 1.0 0.00 0.39 0.00 82 1014.6
20260905070036 56 0.0 3.0 0.00 0.41 0.41 82 1014.5
20260905064515 56 0.0 2.0 0.00 0.43 0.41 82 1014.5
20260905063015 56 0.0 2.0 0.00 0.44 0.41 81 1014.5
20260905061535 56 0.0 1.0 0.00 0.46 0.41 80 1014.4
20260905060015 57 0.0 1.0 0.00 0.50 0.41 79 1014.6